Regional Weather Roundup
Issued by NWS

Home | Current Version | Previous Version | Text Only | Print | Product List | Glossary On
Versions: 1 2 3 4 5 6 7 8 9 10 11 12 13 14 15 16 17 18 19 20 21 22 23 24 25 26 27 28 29 30 31 32 33 34 35 36 37 38 39 40 41 42 43 44 45 46 47 48 49 50
000
ASUS45 KREV 141510
RWRNV
NEVADA REGIONAL WEATHER ROUNDUP
NATIONAL WEATHER SERVICE RENO NV
700 AM PST SUN FEB 14 2016

NOTE: "FAIR" INDICATES FEW OR NO CLOUDS BELOW 12,000 FEET WITH NO
SIGNIFICANT WEATHER AND/OR OBSTRUCTIONS TO VISIBILITY.

NVZ001-003-004-141600-
WESTERN NEVADA

CITY           SKY/WX    TMP DP  RH WIND       PRES   REMARKS
RENO           MOCLDY    37  27  67 NW5       30.35R
CARSON CITY    FAIR      32  25  74 NE5       30.35R
MINDEN         FAIR      30  27  86 NE3       30.37R
SLIDE MTN        N/A     32  27  80 N17         N/A
PYRAMID LAKE     N/A     46 N/A N/A W6          N/A
FALLON         MOCLDY    35  29  78 SE9       30.31R
LOVELOCK       PTCLDY    45  30  55 E7        30.29F
HAWTHORNE      CLEAR     36  30  80 S5        30.34R
$$

NVZ002-CAZ072-073-141600-
NORTHERN AND CENTRAL SIERRA

CITY           SKY/WX    TMP DP  RH WIND       PRES   REMARKS
S. LAKE TAHOE  MOCLDY    27  22  81 S5        30.37R
TRUCKEE        MOCLDY    25  23  93 CALM      30.38R
SQUAW VLY 8000   N/A     32  25  74 SE7         N/A
SUSANVILLE     CLEAR     37  32  81 SW3       30.35R
BLUE CANYON    MOCLDY    47  29  49 VRB7      30.33S
MAMMOTH LAKES  FAIR      27  18  69 CALM      30.36R
BRIDGEPORT     FAIR      30  18  60 CALM      30.31F
$$

NVZ030-031-036-141600-
NORTHERN NEVADA

CITY           SKY/WX    TMP DP  RH WIND       PRES   REMARKS
ELKO           CLOUDY    34  28  79 CALM      30.27R
WINNEMUCCA     CLOUDY    45  33  63 NW3       30.29R
WENDOVER       CLOUDY    28  27  93 SW6       30.27S
$$

NVZ035-037-141600-
CENTRAL NEVADA

CITY           SKY/WX    TMP DP  RH WIND       PRES   REMARKS
ELY            CLOUDY    19  13  77 S13       30.27R
EUREKA           N/A     30  21  69 CALM      30.30R
$$

NVZ013-014-141600-
SOUTH CENTRAL NEVADA

CITY           SKY/WX    TMP DP  RH WIND       PRES   REMARKS
TONOPAH        PTCLDY    42  20  41 N15       30.28R
$$

NVZ017-020-022-141600-
SOUTHERN NEVADA

CITY           SKY/WX    TMP DP  RH WIND       PRES   REMARKS
LAS VEGAS      MOCLDY    49  19  30 CALM      30.12R
N. LAS VEGAS   PTCLDY    52  17  25 N12       30.14R
NELLIS AFB     PTCLDY    47  22  36 W2        30.15R
HENDERSON      PTCLDY    44  19  36 S9        30.17R
MERCURY        MOCLDY    41  21  44 CALM      30.19S
$$



USA.gov is the U.S. government's official web portal to all federal, state and local government web resources and services.